Simultaneous Nadir Overpasses (SNOs) Predictions

Prediction of SNOs between AQUA and NPP Satellite Orbit:

Table of predicted SNOs for the next 14.0 days since TLE Epoch: 8/28/2016
Index Date (AQUA) Time (AQUA) Lat,Lon (AQUA) SZA (AQUA ) Date (NPP) Time (NPP) Lat,Lon (NPP) SZA (NPP ) Distance(km) Time Diff (sec)
1 08/28/2016 05:32:13 74.61, -27.88 89.52 08/28/2016 05:31:46 74.61, -27.82 89.53 2.11 27
2 08/28/2016 06:21:19 -75.70, 142.68 91.70 08/28/2016 06:22:09 -75.70, 142.68 91.74 0.17 50
3 08/30/2016 21:04:21 -57.64, -99.22 72.57 08/30/2016 21:03:08 -57.81,-100.31 72.25 67.28 73
4 08/30/2016 21:48:39 74.78, 88.43 90.22 08/30/2016 21:48:36 74.78, 88.41 90.23 0.34 3
5 08/30/2016 22:37:45 -75.87,-100.94 91.00 08/30/2016 22:38:59 -75.86,-101.02 91.04 2.37 74
6 09/02/2016 13:16:09 -73.44, 33.58 87.44 09/02/2016 13:15:13 -73.43, 33.50 87.36 2.68 56
7 09/02/2016 14:05:03 75.05,-155.01 90.83 09/02/2016 14:05:24 75.04,-155.08 90.83 2.21 21
8 09/05/2016 05:32:20 -74.38, 151.55 87.54 09/05/2016 05:31:47 -74.38, 151.59 87.52 1.39 33
9 09/05/2016 06:21:17 75.80, -37.02 90.90 09/05/2016 06:22:01 75.81, -36.94 90.84 2.34 44
10 09/07/2016 21:48:41 -74.73, -91.70 87.00 09/07/2016 21:48:32 -74.74, -91.68 87.00 0.52 9
11 09/07/2016 22:37:40 76.05, 79.60 91.55 09/07/2016 22:38:48 76.05, 79.66 91.48 1.68 68
12 09/10/2016 13:15:58 73.91,-145.40 94.82 09/10/2016 13:14:56 73.92,-145.32 94.86 2.62 62




NCC Satellite Simultaneous Nadir Overpasses (SNOs) Prediction Service
